Volver al catálogo

QIANFAN-6

ActivoComunicacionesPO
NORAD 60384·PAYLOAD·🇨🇳 China

Lanzado Aug 6, 2024 desde Taiyuan Satellite Launch Center

Loading…

Próximos Pases (próximas 24 horas)

TLE

ActualizadoSource: Space-Track

Época: Sep 14, 2026, 22:56 UTC

1 60384U 24140F   26257.95570216  .00000018  00000-0  91729-5 0  9991
2 60384  88.9670 270.3633 0015089 114.4685 245.8042 13.51024084104791

Sigue QIANFAN-6 en tiempo real con AllMySat

Download on the App Store